Location: Wald
(31.7579°N, 86.6655°W)
Time: 12:18:05
(UTC+00:00)

Cosmos 1378 Rocket - Pass Details

Date: 14 July 2020
Orbit: 602 x 626 km, 82.5° (Epoch: 08 August)

Event Time Altitude Azimuth Distance (km) Brightness Sun altitude
Rises 08:48:36 0° 352° (N) 2,897 7.5 -22.0°
Reaches altitude 10° 08:50:50 10° 352° (N) 1,991 6.6 -21.7°
Maximum altitude 08:55:15 83° 266° (W) 632 3.4 -21.0°
Enters shadow 08:56:31 47° 183° (S) 831 3.8 -20.9°
